Location: Colonia Mina de C?rbuni
(46.1667°N, 22.7167°E)
Time: 22:13:56
(UTC+00:00)

Tiros 1 - Pass Details

Date: 17 April 2024
Orbit: 624 x 657 km, 48.4° (Epoch: 20 May)

Event Time Altitude Azimuth Distance (km) Brightness Sun altitude
Rises 05:44:14 0° 288° (WNW) 2,905 9.9 20.7°
Reaches altitude 10° 05:46:45 10° 278° (W) 1,995 9.2 21.2°
Maximum altitude 05:50:46 31° 216° (SW) 1,107 8.3 21.8°
Drops below altitude 10° 05:54:46 10° 155° (SSE) 1,991 10.2 22.5°
Sets 05:57:17 0° 145° (SE) 2,898 11.1 23.0°
